TimeCDT,TemperatureF,Dew PointF,Humidity,Sea Level PressureIn,VisibilityMPH,Wind Direction,Wind SpeedMPH,Gust SpeedMPH,PrecipitationIn,Events,Conditions,WindDirDegrees,DateUTC
12:31 AM,53.6,51.8,94,30.02,3.0,Calm,Calm,-,N/A,,Scattered Clouds,0,2013-10-18 05:31:00
12:33 AM,53.6,51.8,94,30.02,2.5,Calm,Calm,-,N/A,,Mostly Cloudy,0,2013-10-18 05:33:00
12:41 AM,53.6,51.8,94,30.02,4.0,Calm,Calm,-,N/A,,Scattered Clouds,0,2013-10-18 05:41:00
12:53 AM,54.0,52.0,93,30.00,5.0,Calm,Calm,-,N/A,,Scattered Clouds,0,2013-10-18 05:53:00
1:10 AM,53.6,51.8,94,30.02,1.0,Calm,Calm,-,N/A,,Clear,0,2013-10-18 06:10:00
1:21 AM,53.6,51.8,94,30.02,3.0,Calm,Calm,-,N/A,,Clear,0,2013-10-18 06:21:00
1:53 AM,53.1,51.1,93,30.01,5.0,Calm,Calm,-,N/A,,Clear,0,2013-10-18 06:53:00
2:53 AM,52.0,50.0,93,30.00,5.0,Calm,Calm,-,N/A,,Scattered Clouds,0,2013-10-18 07:53:00
3:22 AM,51.8,50.0,94,30.02,5.0,Calm,Calm,-,0.01,,Mostly Cloudy,0,2013-10-18 08:22:00
3:24 AM,51.8,50.0,94,30.02,1.5,Calm,Calm,-,0.01,,Mostly Cloudy,0,2013-10-18 08:24:00
3:26 AM,51.8,50.0,94,30.02,0.8,Calm,Calm,-,0.01,,Mist,0,2013-10-18 08:26:00
3:35 AM,51.8,48.2,88,30.02,0.2,Calm,Calm,-,0.01,Fog,Fog,0,2013-10-18 08:35:00
3:53 AM,51.1,50.0,96,30.01,0.2,Calm,Calm,-,0.01,Fog,Fog,0,2013-10-18 08:53:00
4:53 AM,51.1,50.0,96,30.02,0.2,Calm,Calm,-,N/A,Fog,Fog,0,2013-10-18 09:53:00
5:53 AM,51.1,50.0,96,30.03,0.2,Calm,Calm,-,N/A,Fog,Fog,0,2013-10-18 10:53:00
6:14 AM,51.8,50.0,94,30.05,0.5,Calm,Calm,-,N/A,Fog,Fog,0,2013-10-18 11:14:00
6:28 AM,50.0,48.2,94,30.05,0.2,Calm,Calm,-,N/A,Fog,Fog,0,2013-10-18 11:28:00
6:53 AM,50.0,48.9,96,30.04,0.2,Calm,Calm,-,N/A,Fog,Fog,0,2013-10-18 11:53:00
7:34 AM,50.0,48.2,94,30.07,1.0,Calm,Calm,-,N/A,,Mist,0,2013-10-18 12:34:00
7:37 AM,51.8,48.2,88,30.06,2.5,Calm,Calm,-,N/A,,Scattered Clouds,0,2013-10-18 12:37:00
7:45 AM,51.8,50.0,94,30.07,4.0,Calm,Calm,-,N/A,,Partly Cloudy,0,2013-10-18 12:45:00
7:53 AM,51.1,50.0,96,30.05,6.0,Calm,Calm,-,N/A,,Clear,0,2013-10-18 12:53:00
8:53 AM,57.0,55.0,93,30.06,10.0,Calm,Calm,-,N/A,,Clear,0,2013-10-18 13:53:00
9:53 AM,63.0,55.0,75,30.08,10.0,Calm,Calm,-,N/A,,Clear,0,2013-10-18 14:53:00
10:53 AM,66.0,53.1,63,30.06,10.0,East,4.6,-,N/A,,Clear,90,2013-10-18 15:53:00
11:53 AM,66.9,52.0,59,30.05,10.0,Variable,6.9,-,N/A,,Clear,0,2013-10-18 16:53:00
12:53 PM,69.1,54.0,58,29.99,10.0,East,4.6,-,N/A,,Clear,80,2013-10-18 17:53:00
1:53 PM,70.0,52.0,53,29.96,10.0,Calm,Calm,-,N/A,,Clear,0,2013-10-18 18:53:00
2:53 PM,72.0,51.1,48,29.95,10.0,Variable,3.5,-,N/A,,Clear,0,2013-10-18 19:53:00
3:53 PM,71.1,53.1,53,29.94,10.0,ESE,4.6,-,N/A,,Clear,120,2013-10-18 20:53:00
4:53 PM,69.1,53.1,57,29.94,10.0,Calm,Calm,-,N/A,,Clear,0,2013-10-18 21:53:00
5:53 PM,66.9,55.0,66,29.97,10.0,SSW,5.8,-,0.00,Rain,Light Rain,200,2013-10-18 22:53:00
6:53 PM,64.9,57.0,75,29.96,10.0,Calm,Calm,-,0.00,,Scattered Clouds,0,2013-10-18 23:53:00
7:53 PM,64.0,57.9,80,29.99,10.0,Calm,Calm,-,N/A,,Mostly Cloudy,0,2013-10-19 00:53:00
8:53 PM,64.0,57.9,80,29.97,10.0,Calm,Calm,-,N/A,,Scattered Clouds,0,2013-10-19 01:53:00
9:53 PM,64.0,59.0,84,29.99,10.0,Calm,Calm,-,N/A,,Mostly Cloudy,0,2013-10-19 02:53:00
10:53 PM,62.1,59.0,90,29.97,10.0,Calm,Calm,-,N/A,,Overcast,0,2013-10-19 03:53:00
11:53 PM,61.0,57.9,90,29.96,9.0,Calm,Calm,-,N/A,,Scattered Clouds,0,2013-10-19 04:53:00